Live-Position
3D-Globus wird geladen...
Über Starlink 6218
Group: 3 satellites
Beschreibung wird geladen...
Nächste Überflüge
Passes for default location (London). Set your location on the main map for personalized predictions.
Höhenverlauf
Loading altitude history...
No altitude history available
Zweizeiliger Elementsatz
1 57368U 23099AS 26105.91668981 -.00020690 00000-0 -76346-3 0 9992
2 57368 43.0011 31.2503 0001622 268.5148 135.2335 15.26752896 5793
Epoch: 15. Apr. 2026 •
Age: 8 hours
Aktueller Status
Höhe 489.2 km
Geschwindigkeit 7.63 km/s
Subsatellitenpunkt 40.54°N,
161.16°E
Startdatum 16. Juli 2023
Alter 2.7 years
Typ internet
Startgruppe
Falcon 9 •
Group 5-15 •
51 satellites
Starlink 6290
57328
Starlink 6138 57329
Starlink 6212 57330
Starlink 6234 57331
Starlink 5831 57332
Starlink 5585 57333
Starlink 5589 57334
Starlink 6316 57335
Starlink 6320 57336
Starlink 6322 57337
Starlink 6374 57338
Starlink 6332 57339
Starlink 6321 57340
Starlink 6377 57341
Starlink 6375 57342
Starlink 6379 57343
Starlink 6380 57344
Starlink 6373 57345
Starlink 6359 57346
Starlink 6378 57347
...and 30 more
Technische Details
Klassifizierung Payload
Masse 305.00 kg
Trockenmasse 290.00 kg
Gesamtmasse 305.00 kg
Länge 0.20 m
Durchmesser 2.80 m
Spannweite 9.00 m
Form Box + pan
Hersteller SPXS
Bus-Typ Starlink
Phasenstatus In Orbit
Besitzer/Staat SPXS/US
Most Searched
Loading...